CAPE
0 0 8 3 4 0 0 2 15 24 4 3 0 0 260 652 1032 841 1125 1376 1634 1673 1662 1608 1612 1537 1555 1415 1304 1286 1136 1048 1048 1174 1277 1316 1291 1314 1546 1565 1448 1502 1353 1219
9 0 0 6 3 0 0 0 0 0 0 0 23 91 432 808 940 952 1060 1126 1212 1307 1134 1031 1039 1120 1386 1471 1564 1718 1409 1258 1218 1212 1235 1322 1322 1273 1330 1287 1263 1265 1105 1198
10 0 0 0 0 0 0 0 0 0 0 0 52 563 674 682 839 940 1105 1095 1123 1086 946 903 452 541 765 829 963 999 1125 1399 1542 1602 1557 1435 1414 1359 1261 1210 1226 1277 1262 1206
44 1 0 20 0 0 0 0 0 0 0 9 31 301 289 162 304 503 563 980 1166 849 730 415 291 332 262 436 459 483 501 416 424 488 595 864 1199 1528 1571 1420 1428 1327 1193 1288
61 22 28 0 0 0 0 0 0 0 0 1 28 1 91 63 72 162 359 679 687 582 436 175 199 2 36 217 295 253 226 93 28 4 1 23 123 362 689 1378 1308 1153 1128 1079
21 82 29 50 0 0 0 0 0 0 0 0 0 0 6 26 104 210 336 383 268 114 61 1 1 17 16 91 105 119 13 1 1 2 2 2 3 2 67 462 862 915 1037 1077
15 61 43 12 5 0 0 0 0 0 0 0 0 64 142 125 147 221 246 210 142 35 2 2 3 4 14 72 108 4 3 3 2 4 4 3 3 3 5 81 500 402 724 800
0 21 16 0 6 0 0 0 0 0 0 0 51 143 56 121 121 75 39 3 0 2 6 3 3 26 69 159 58 14 6 4 3 5 5 4 1 2 2 13 129 105 9 0
0 7 102 12 0 0 9 0 8 2 12 21 199 107 94 52 20 0 0 7 6 0 2 2 4 6 91 114 69 33 3 2 2 5 6 5 0 0 2 12 6 0 0 0
0 4 15 9 235 194 75 67 95 14 59 18 97 75 10 2 0 6 13 13 10 14 11 6 3 49 215 128 86 47 2 4 3 3 5 2 0 1 1 2 0 1 1 1
11 96 62 61 260 257 288 258 140 194 168 107 17 6 12 1 7 9 2 0 0 3 5 5 7 7 132 61 99 50 3 13 1 2 5 6 7 4 2 0 0 1 3 3
0 302 66 137 297 478 359 240 207 113 57 17 27 23 3 0 4 1 0 2 4 5 3 2 2 11 61 127 221 53 4 34 0 1 3 5 4 5 7 3 1 0 1 0
145 376 601 707 429 467 379 327 229 148 112 85 71 0 12 0 4 0 4 12 4 4 4 2 2 37 125 177 252 111 4 34 0 1 3 3 4 0 0 1 0 0 0 0
79 359 661 547 521 402 419 310 126 200 222 217 84 37 2 1 0 2 3 5 2 3 3 1 2 42 142 209 165 30 22 13 40 0 1 2 3 3 0 1 0 0 0 0
418 376 656 721 499 391 366 310 242 286 299 177 105 50 0 3 4 2 0 9 2 2 3 2 2 2 20 195 67 34 79 59 6 2 0 0 0 2 5 1 6 1 0 0
290 427 646 602 390 311 310 355 283 243 162 86 112 40 42 34 2 0 0 0 1 3 3 1 0 0 0 8 35 10 0 2 1 0 0 0 0 0 0 0 0 0 0 0
57 422 309 429 278 254 314 475 355 200 125 29 92 88 75 0 0 0 0 0 0 0 0 0 0 17 2 0 0 0 0 0 0 0 0 0 0 0 0 0 0 0 0 0
0 347 442 393 270 358 270 285 242 287 289 79 126 87 67 0 0 0 0 0 0 0 0 0 0 0 0 0 0 0 0 0 0 0 0 0 0 0 0 0 0 0 0 0
0 0 319 432 336 314 296 286 277 266 233 127 127 74 45 0 0 0 0 0 2 1 0 0 0 0 0 0 0 0 0 0 0 0 0 0 0 0 0 0 0 0 0 0
0 0 89 331 385 410 403 391 409 332 225 147 105 54 1 0 0 0 0 0 2 1 0 0 0 0 0 0 0 0 0 3 6 9 0 0 0 2 2 0 0 0 0 0
0 0 0 126 449 472 487 534 545 504 313 217 172 102 0 0 0 0 0 0 0 1 0 0 0 0 0 0 0 0 0 0 0 0 5 2 2 3 1 0 0 0 0 0
0 0 0 0 0 77 372 587 643 662 533 344 286 238 36 0 0 0 0 0 0 6 6 0 0 0 0 0 0 0 0 0 0 0 0 0 0 0 0 0 0 0 0 0
271 20 0 0 4 199 523 627 755 773 781 559 403 333 189 42 3 0 0 0 31 42 23 49 13 0 0 0 0 0 0 0 0 0 0 0 0 0 0 0 0 0 0 0
292 240 124 13 87 212 618 736 807 857 973 942 737 539 384 230 127 73 59 40 1 56 42 77 43 0 0 0 0 0 0 0 0 0 0 0 0 0 0 0 0 0 0 0
275 518 421 183 26 76 207 701 813 912 1085 1096 955 902 627 423 337 320 192 184 50 17 41 14 6 0 0 0 0 0 0 0 0 0 0 0 0 0 0 0 0 0 0 0
30 100 206 557 531 201 27 73 324 470 474 515 535 569 548 528 501 437 438 271 283 35 121 168 21 0 0 0 0 0 0 0 0 0 0 0 0 0 0 0 0 0 0 0
58 13 46 82 127 378 535 523 409 282 287 340 358 444 491 472 437 397 361 503 337 299 130 239 173 0 8 0 0 0 0 0 0 0 0 0 0 0 0 0 0 0 0 0
CIN
-0 -0 -6 -3 -5 -0 -0 -6 -4 -7 -3 -3 -0 -0 -3 -30 -68 -88 -80 -77 -86 -82 -96 -104 -94 -85 -72 -61 -54 -51 -59 -46 -36 -36 -10 -8 -3 -1 -0 -1 -1 -0 -1 -0
-5 -0 -0 -7 -5 -0 -0 -0 -0 -0 -0 -0 -46 -15 -10 -36 -59 -61 -70 -94 -113 -122 -140 -160 -158 -131 -76 -58 -37 -24 -41 -50 -27 -23 -9 -1 -5 -10 -2 -3 -6 -3 -0 -1
-8 -0 -0 -0 -0 -0 -0 -0 -0 -0 -0 -0 -66 -42 -41 -36 -41 -42 -54 -79 -101 -120 -133 -144 -237 -202 -133 -112 -85 -71 -49 -26 -14 -8 -8 -4 -5 -9 -4 -6 -5 -4 -1 -1
-18 -26 -3 -5 -0 -0 -0 -0 -0 -0 -0 -118 -85 -40 -59 -113 -85 -76 -71 -76 -90 -140 -138 -194 -208 -186 -213 -138 -126 -117 -96 -107 -105 -92 -91 -64 -24 -0 -0 -3 -1 -2 -1 -0
-6 -33 -5 -0 -0 -0 -0 -0 -0 -0 -0 -32 -154 -14 -141 -186 -172 -103 -95 -101 -128 -128 -140 -197 -170 -15 -249 -150 -113 -114 -101 -144 -168 -34 -5 -101 -155 -87 -40 -0 -0 -0 -1 -0
-32 -7 -3 -2 -0 -0 -0 -0 -0 -0 -0 -0 -0 -0 -23 -223 -146 -130 -123 -132 -145 -151 -146 -0 -0 -148 -194 -126 -102 -76 -109 -0 -0 -0 -0 -0 -0 -1 -131 -24 -0 -1 -0 -1
-37 -5 -7 -52 -67 -0 -0 -0 -0 -0 -0 -0 -0 -19 -137 -148 -120 -94 -94 -96 -89 -78 -0 -0 -0 -0 -106 -99 -56 -18 -0 -0 -0 -0 -0 -0 -0 -0 -0 -76 -1 -0 -0 -1
-1 -7 -5 -42 -108 -0 -0 -0 -0 -0 -0 -0 -45 -82 -124 -117 -123 -116 -104 -48 -0 -0 -0 -0 -0 -98 -97 -31 -94 -79 -6 -0 -0 -0 -0 -0 -0 -0 -0 -0 -37 -24 -26 -0
-0 -27 -72 -66 -0 -0 -25 -0 -87 -44 -58 -54 -36 -51 -86 -113 -151 -8 -0 -0 -0 -1 -2 -0 -0 -0 -46 -30 -62 -90 -0 -0 -0 -0 -0 -0 -0 -0 -0 -118 -75 -0 -0 -6
-0 -77 -50 -51 -99 -89 -82 -57 -65 -69 -74 -93 -43 -84 -143 -181 -0 -0 -0 -0 -0 -0 -0 -0 -0 -85 -31 -17 -51 -65 -0 -0 -0 -0 -0 -0 -0 -0 -0 -0 -0 -0 -0 -0
-25 -125 -126 -79 -95 -109 -110 -100 -108 -101 -88 -79 -117 -141 -130 -100 -0 -0 -0 -0 -5 -1 -0 -0 -1 -30 -4 -38 -25 -23 -1 -1 -0 -0 -0 -0 -0 -0 -0 -0 -0 -0 -0 -0
-0 -91 -43 -20 -103 -138 -136 -117 -128 -135 -138 -139 -112 -117 -153 -0 -0 -0 -0 -0 -0 -0 -0 -0 -0 -37 -22 -15 -5 -16 -0 -32 -0 -0 -0 -0 -0 -0 -0 -0 -0 -0 -0 -0
-84 -151 -83 -20 -106 -146 -119 -123 -141 -143 -139 -120 -87 -0 -132 -0 -0 -0 -0 -0 -6 -3 -0 -0 -0 -38 -9 -9 -5 -5 -37 -8 -0 -103 -121 -0 -0 -0 -0 -0 -0 -0 -0 -0
-190 -213 -136 -103 -126 -134 -125 -133 -212 -145 -111 -66 -71 -90 -14 -0 -0 -0 -0 -0 -0 -0 -0 -0 -0 -65 -5 -5 -16 -59 -88 -81 -32 -20 -0 -0 -0 -0 -0 -0 -0 -0 -0 -0
-150 -147 -84 -103 -142 -149 -139 -143 -137 -120 -84 -65 -57 -65 -0 -0 -0 -0 -0 -5 -8 -0 -0 -0 -0 -0 -91 -5 -46 -52 -24 -49 -68 -0 -0 -0 -0 -0 -0 -0 -0 -0 -0 -0
-91 -92 -65 -76 -91 -135 -148 -112 -92 -103 -103 -81 -46 -61 -70 -77 -1 -0 -0 -0 -1 -0 -6 -0 -0 -0 -0 -75 -57 -11 -0 -12 -12 -0 -0 -0 -0 -0 -0 -0 -0 -0 -0 -0
-71 -19 -38 -34 -76 -104 -90 -39 -39 -94 -91 -98 -45 -42 -62 -0 -0 -0 -0 -0 -0 -0 -0 -0 -0 -82 -0 -0 -0 -0 -0 -0 -0 -0 -0 -0 -0 -0 -0 -0 -0 -0 -0 -0
-2 -25 -23 -23 -46 -50 -46 -47 -54 -53 -38 -65 -35 -53 -71 -0 -0 -0 -0 -0 -0 -0 -0 -0 -0 -0 -0 -0 -0 -0 -0 -0 -0 -0 -0 -0 -0 -0 -0 -0 -0 -0 -0 -0
-0 -0 -32 -26 -30 -36 -35 -33 -33 -47 -43 -45 -41 -68 -90 -0 -0 -0 -0 -0 -1 -0 -0 -0 -0 -0 -0 -0 -0 -0 -0 -0 -0 -0 -0 -0 -0 -0 -0 -0 -0 -0 -0 -0
-0 -0 -41 -44 -45 -41 -35 -31 -31 -36 -40 -54 -65 -111 -35 -0 -0 -0 -0 -0 -1 -1 -0 -0 -0 -0 -0 -0 -0 -0 -0 -1 -1 -1 -0 -0 -0 -1 -2 -0 -0 -0 -0 -0
-5 -0 -0 -80 -68 -55 -44 -45 -40 -45 -44 -52 -58 -76 -0 -0 -0 -0 -0 -0 -0 -7 -0 -0 -0 -0 -0 -0 -0 -0 -0 -0 -0 -0 -1 -1 -0 -1 -2 -0 -0 -0 -0 -0
-0 -0 -0 -0 -9 -67 -62 -42 -43 -41 -46 -58 -56 -62 -107 -0 -0 -0 -0 -0 -0 -107 -167 -0 -0 -0 -0 -0 -0 -0 -0 -0 -0 -0 -0 -0 -0 -0 -0 -0 -0 -0 -0 -0
-38 -50 -0 -0 -51 -33 -52 -67 -61 -54 -54 -72 -76 -68 -97 -93 -62 -0 -0 -0 -125 -177 -171 -94 -122 -0 -0 -0 -0 -0 -0 -0 -0 -0 -0 -0 -0 -0 -0 -0 -0 -0 -0 -0
-35 -52 -62 -66 -54 -7 -57 -93 -80 -66 -61 -66 -76 -85 -86 -83 -80 -91 -73 -99 -18 -161 -164 -77 -155 -0 -0 -0 -0 -0 -0 -0 -0 -0 -0 -0 -0 -0 -0 -0 -0 -0 -0 -0
-52 -46 -56 -70 -68 -85 -99 -88 -78 -49 -59 -70 -66 -89 -112 -106 -60 -34 -51 -47 -168 -159 -177 -214 -127 -0 -0 -0 -0 -0 -0 -0 -0 -0 -0 -0 -0 -0 -0 -0 -0 -0 -0 -0
-57 -45 -51 -63 -37 -42 -46 -31 -60 -50 -18 -32 -47 -67 -73 -82 -93 -95 -55 -82 -76 -233 -112 -93 -209 -0 -0 -0 -0 -0 -0 -0 -0 -0 -0 -0 -0 -0 -0 -0 -0 -0 -0 -0
-42 -79 -58 -48 -54 -55 -46 -48 -41 -24 -26 -15 -11 -15 -36 -60 -69 -98 -117 -61 -122 -122 -177 -71 -135 -0 -105 -0 -0 -0 -0 -0 -0 -0 -0 -0 -0 -0 -0 -0 -0 -0 -0 -0
Wind_Speed
34 25 13 8 9 22 33 33 30 22 27 25 19 17 13 12 11 10 9 9 10 11 12 12 12 13 15 16 16 17 16 16 18 25 31 28 33 29 28 30 29 33 35 34
32 26 26 24 23 23 31 34 30 32 29 25 20 21 16 14 9 9 9 9 10 11 12 13 14 15 16 16 17 19 20 23 25 25 32 37 37 32 31 30 30 32 33 31
31 20 23 33 25 29 31 30 32 34 31 19 21 17 14 12 11 10 9 9 10 12 13 14 15 16 17 19 20 21 23 24 26 26 30 33 31 33 34 36 37 33 33 31
28 18 33 25 18 27 33 34 32 32 27 22 20 15 15 15 13 12 13 13 12 13 14 15 15 16 19 19 20 22 24 26 27 29 33 35 37 36 37 34 31 33 36 29
26 29 23 23 23 26 28 30 24 24 17 14 14 14 16 15 14 13 13 12 12 14 15 15 16 17 18 20 21 23 26 29 30 32 34 37 39 41 42 38 35 36 34 32
30 33 36 25 16 16 18 30 17 18 15 13 14 19 16 12 12 13 13 12 13 14 13 14 15 16 17 19 22 24 27 31 35 37 39 41 41 41 42 39 37 34 36 35
33 31 27 17 11 8 19 18 12 12 17 18 20 21 13 14 15 15 14 14 13 13 14 14 15 14 16 18 21 24 27 31 34 37 40 43 45 41 39 39 37 32 33 32
33 30 25 8 8 15 18 14 13 14 14 14 15 15 16 16 15 15 15 15 14 14 15 14 12 12 14 16 19 21 26 30 33 35 36 38 40 37 35 32 30 28 22 24
31 29 16 5 11 6 15 12 14 13 12 12 14 16 16 17 17 17 18 16 15 10 12 14 10 10 10 14 17 20 24 28 32 34 34 33 32 32 34 29 23 23 19 22
29 28 19 10 14 10 12 13 13 13 12 13 14 16 16 16 15 16 14 14 13 9 7 6 6 7 10 12 15 18 22 27 30 32 34 29 26 24 22 22 19 20 17 23
30 22 16 12 14 10 11 11 13 14 14 13 13 14 12 11 12 13 12 12 11 8 6 5 5 3 6 10 13 16 20 24 28 30 29 28 21 18 16 16 14 16 16 16
35 20 18 24 10 10 8 9 12 12 14 14 12 9 9 10 11 12 12 12 11 10 8 6 6 5 5 8 12 17 19 22 25 26 24 24 24 16 17 13 13 11 10 7
25 21 22 21 4 9 8 8 11 14 14 10 7 7 8 9 10 11 12 12 11 10 9 8 7 9 8 6 11 16 19 18 18 21 21 21 22 23 21 20 21 20 21 20
21 16 16 6 10 8 7 10 11 12 10 7 6 6 7 8 9 10 11 12 11 11 10 8 6 5 6 6 10 14 16 16 16 15 16 18 21 22 20 17 17 13 14 14
15 18 18 12 4 3 3 10 8 7 5 5 6 6 7 7 8 9 10 11 11 12 12 10 7 5 5 7 10 12 13 16 16 15 13 13 15 18 18 19 20 18 13 9
21 19 11 13 7 2 6 10 6 5 4 6 7 7 7 7 8 9 9 10 11 11 12 12 10 7 6 7 9 11 12 14 16 18 18 18 18 19 17 15 15 13 14 13
29 26 21 14 11 11 3 6 8 7 8 8 6 5 5 6 7 8 8 9 10 11 12 12 12 12 13 12 11 12 13 14 15 16 18 18 20 20 19 18 14 18 18 28
31 24 23 18 7 5 8 8 6 7 8 7 5 4 4 6 7 7 7 8 10 10 10 10 11 11 11 11 10 11 11 10 12 12 14 15 16 18 20 20 21 22 25 27
30 24 23 19 11 10 7 9 5 6 7 7 5 2 4 6 6 7 9 9 9 10 10 10 10 10 10 8 8 9 9 9 10 11 11 12 14 16 17 19 21 21 21 21
30 25 21 22 14 9 5 6 7 8 7 5 3 3 3 4 7 12 14 14 13 10 10 10 12 11 9 9 7 7 7 7 7 8 9 10 11 12 13 13 13 14 14 13
24 25 22 23 18 17 10 10 12 10 6 4 2 3 3 8 26 22 21 22 21 11 11 9 9 8 8 7 9 8 6 6 6 6 6 9 8 9 9 11 12 11 11 11
22 24 25 21 24 18 20 15 12 15 9 8 10 11 12 14 2 15 21 19 13 13 13 10 9 7 7 7 9 6 6 5 7 7 8 10 11 10 9 11 10 9 9 8
19 21 24 25 22 24 25 24 11 12 14 13 12 13 11 12 7 3 5 13 9 9 11 9 7 6 5 6 6 8 7 16 18 11 9 7 9 9 8 7 6 6 6 6
19 22 24 20 18 22 21 16 14 17 20 18 20 20 16 17 15 11 10 5 6 1 7 4 3 5 4 3 5 7 8 8 5 3 3 5 3 3 3 3 3 3 4 5
18 20 22 23 23 21 18 18 19 20 20 22 23 22 22 21 23 18 12 11 5 4 4 4 2 3 2 2 5 8 10 11 8 5 4 4 3 2 2 3 4 5 6 4
18 20 19 18 19 19 20 19 19 18 20 22 22 21 22 19 20 24 22 16 12 8 9 7 6 6 6 6 7 7 8 9 8 7 6 6 6 5 5 6 7 7 6 4
18 18 19 18 17 17 18 21 21 21 21 21 25 25 23 23 22 21 20 19 17 15 15 14 12 9 8 10 11 11 10 10 9 8 8 8 8 7 6 6 6 6 6 5
Wind_Direction
251 274 275 264 261 265 249 251 257 266 259 261 272 268 272 278 289 303 317 329 335 338 337 334 325 316 310 302 297 292 292 286 279 273 266 276 270 277 274 272 271 267 267 267
255 264 260 263 264 269 254 247 259 254 261 269 274 269 270 278 286 298 309 320 329 336 336 332 324 315 310 306 301 297 295 291 287 283 272 264 268 273 272 273 272 273 275 271
252 261 260 248 260 257 251 256 256 253 261 277 273 276 277 282 290 299 311 319 321 322 324 323 322 315 308 305 300 296 292 292 289 286 277 274 275 273 272 268 269 270 272 272
251 258 247 262 277 263 254 256 259 258 268 272 277 283 287 292 298 304 308 311 315 317 316 319 318 314 309 307 303 298 294 292 291 287 281 277 275 275 272 272 271 270 270 269
247 249 264 268 275 272 270 264 272 269 279 284 287 292 294 300 306 310 311 317 318 317 314 314 312 310 307 304 304 301 296 294 292 291 287 282 277 274 270 273 272 270 268 267
245 246 245 268 288 293 286 264 284 277 280 286 288 285 297 315 319 320 321 321 316 316 317 314 313 312 309 307 304 303 302 298 294 291 287 282 281 279 275 275 274 272 269 267
245 247 259 282 295 301 268 287 300 287 281 284 284 290 311 321 324 323 322 318 317 318 314 312 312 311 310 310 311 312 310 308 304 298 290 284 280 281 279 275 273 273 270 268
244 244 256 282 286 272 285 305 309 304 301 297 298 303 307 314 321 325 323 315 315 316 314 310 313 314 311 313 321 323 320 318 316 312 301 292 283 279 279 277 272 275 269 268
243 245 269 267 291 288 304 306 309 318 325 316 309 308 310 314 319 321 318 316 315 327 318 304 312 316 321 322 328 333 333 331 328 324 315 303 292 288 278 275 269 270 266 268
252 245 258 266 289 307 304 305 315 321 332 329 320 316 317 321 326 326 332 333 328 345 346 331 320 311 321 335 341 339 341 343 346 341 338 321 308 298 290 285 281 276 271 271
248 257 258 264 279 297 306 312 315 321 325 329 331 328 331 349 339 342 352 0 356 12 28 51 63 9 341 344 349 354 349 352 356 354 351 352 342 320 310 309 302 296 294 282
242 263 274 266 269 286 300 318 315 320 324 326 332 341 354 3 352 2 5 21 28 35 44 47 71 74 44 340 352 0 354 351 3 7 6 9 16 11 16 17 16 12 10 20
254 266 269 267 254 280 298 320 314 316 321 331 340 342 356 359 6 10 18 21 23 25 29 41 66 98 86 31 11 14 15 5 6 17 21 23 30 44 47 43 47 49 53 62
264 260 259 239 278 278 309 307 317 321 332 333 332 339 348 350 10 8 8 16 30 27 20 21 57 70 57 27 12 21 30 31 34 21 18 23 38 41 41 45 48 47 47 48
252 257 261 266 252 292 348 301 323 339 344 330 322 331 343 353 4 14 22 30 32 33 35 40 57 65 38 24 21 27 40 43 47 39 25 17 25 38 40 44 54 60 57 49
253 258 270 256 274 316 306 293 320 344 318 309 311 318 338 4 26 39 37 33 41 40 47 50 54 62 64 43 39 39 28 43 59 67 64 62 55 53 47 45 50 50 55 53
239 243 253 272 276 280 328 307 312 307 290 292 303 321 350 20 48 56 51 40 43 48 48 50 55 67 75 74 58 48 49 59 61 67 77 75 77 74 69 65 53 65 72 123
243 255 254 260 273 285 288 298 332 303 288 290 303 327 22 63 68 70 62 61 60 52 46 47 61 68 67 62 51 49 47 44 49 52 61 69 68 78 85 86 86 92 107 122
236 252 253 254 259 270 288 286 346 307 292 286 294 359 58 76 69 76 90 89 76 75 70 62 60 63 59 46 46 40 38 47 45 50 54 59 77 79 83 96 100 97 96 102
245 252 251 251 257 263 284 294 290 285 286 294 337 22 55 77 98 117 124 126 118 92 86 83 96 82 67 69 54 36 35 43 33 42 62 82 74 81 85 83 83 84 78 71
248 252 251 251 244 252 256 261 262 264 280 304 4 17 38 280 175 153 153 159 158 116 110 92 87 68 72 76 110 94 43 23 18 25 64 109 77 93 92 97 101 87 81 75
250 245 238 242 242 255 253 253 258 258 267 273 275 274 272 264 343 141 161 157 133 135 136 123 114 91 63 81 121 92 93 65 89 77 97 119 122 114 108 114 107 94 79 62
245 241 236 242 250 249 251 248 249 257 260 264 269 271 277 279 293 332 120 154 138 138 147 138 126 105 86 77 93 126 118 157 161 130 118 107 125 130 119 113 102 91 72 38
252 249 246 257 255 252 258 256 251 256 260 266 267 269 273 275 284 291 301 322 159 130 157 147 139 139 128 36 344 328 312 304 310 337 5 342 34 85 105 88 86 45 10 3
256 261 254 254 255 261 270 265 257 259 263 267 272 274 276 275 274 284 288 292 278 232 250 277 228 189 197 319 322 313 304 297 292 290 296 303 306 303 302 307 315 326 335 349
265 264 270 273 270 268 266 267 266 267 270 275 278 281 284 288 285 278 280 283 282 266 277 279 271 264 267 281 296 301 303 299 286 273 271 273 276 279 279 290 301 310 320 330
278 279 274 276 277 283 280 272 275 277 279 281 283 285 288 288 288 286 283 279 278 277 274 276 279 269 272 281 284 288 291 292 284 270 254 259 261 261 261 272 290 302 310 317